Hollywood, FL

7:40 PM EST on December 10, 2019 (GMT -0500)
North Perry

Weather History for KHWO - August, 2019

Change the Weather History Date:

Saturday, August 31, 2019

  Actual Average (WUND) Record (WUND)
Temperature  
Mean Temperature 86 °F -  
Max Temperature 91 °F - - (-1)
Min Temperature 79 °F - - (-1)
Cooling Degree Days 20    
Growing Degree Days 36 (Base 50)    
Moisture  
Dew Point 74 °F    
Average Humidity 73    
Maximum Humidity 88    
Minimum Humidity 57    
Precipitation  
Precipitation 0.10 in - - ()
Sea Level Pressure  
Sea Level Pressure 29.94 in    
Wind  
Wind Speed 7 mph (East)    
Max Wind Speed 15 mph    
Max Gust Speed 22 mph    
Visibility 10 miles    
Events Rain    
Averages and records for this station are not official NWS values.
T = Trace of Precipitation, MM = Missing Value Source: NWS Daily Summary

Daily Weather History Graph

Daily Weather History Graph

Search for Another Location

Airport or City:

Astronomy

Aug. 31, 2019 Rise Set
Actual Time 7:00 AM EDT 7:41 PM EDT
Civil Twilight 6:37 AM EDT 8:05 PM EDT
Nautical Twilight 6:09 AM EDT 8:32 PM EDT
Astronomical Twilight 5:41 AM EDT 9:00 PM EDT
Moon 8:12 AM EDT (8/31) 9:00 PM EDT (8/31)
Length of Visible Light 13h 27m
Length of Day
12h 41m
New Moon, 2% of the Moon is Illuminated
Aug 31
New Moon
Sep 5
First Quarter
Sep 14
Full
Sep 21
Last Quarter
Sep 28
New

Hourly Weather History & Observations

Time (EDT) Temp. Heat Index Dew Point Humidity Pressure Visibility Wind Dir Wind Speed Gust Speed Precip Events Conditions
12:53 AM 82.0 °F 88.6 °F 75.0 °F 79% 29.97 in 10.0 mi ESE 6.9 mph - 0.00 in   Clear
1:53 AM 82.0 °F 88.6 °F 75.0 °F 79% 29.94 in 10.0 mi East 5.8 mph - N/A   Clear
2:53 AM 80.1 °F 84.2 °F 73.0 °F 79% 29.93 in 10.0 mi East 3.5 mph - N/A   Clear
3:53 AM 80.1 °F 84.5 °F 73.9 °F 81% 29.92 in 10.0 mi Calm Calm - N/A   Partly Cloudy
4:53 AM 82.0 °F 88.6 °F 75.0 °F 79% 29.92 in 10.0 mi ESE 3.5 mph - N/A   Mostly Cloudy
5:34 AM 82.0 °F 88.6 °F 75.0 °F 79% 29.92 in 10.0 mi East 6.9 mph - 0.00 in Rain Light Rain
5:41 AM 81.0 °F 86.7 °F 75.0 °F 82% 29.92 in 10.0 mi East 4.6 mph - 0.00 in   Mostly Cloudy
5:53 AM 81.0 °F 86.7 °F 75.0 °F 82% 29.93 in 10.0 mi East 5.8 mph - 0.00 in   Scattered Clouds
6:53 AM 80.1 °F 85.1 °F 75.0 °F 85% 29.94 in 10.0 mi Calm Calm - N/A   Clear
7:53 AM 80.1 °F 83.8 °F 72.0 °F 76% 29.95 in 10.0 mi ENE 5.8 mph - 0.00 in   Clear
8:53 AM 84.0 °F 91.9 °F 75.0 °F 74% 29.96 in 10.0 mi East 8.1 mph - N/A   Clear
9:53 AM 80.1 °F 84.5 °F 73.9 °F 81% 29.97 in 8.0 mi ENE 8.1 mph - 0.10 in Rain Light Rain
10:53 AM 87.1 °F 97.3 °F 75.9 °F 69% 29.97 in 10.0 mi East 11.5 mph - 0.00 in   Scattered Clouds
11:53 AM 89.1 °F 100.2 °F 75.9 °F 65% 29.96 in 10.0 mi East 11.5 mph 19.6 mph N/A   Scattered Clouds
12:53 PM 89.1 °F 99.1 °F 75.0 °F 63% 29.96 in 10.0 mi East 12.7 mph - N/A   Scattered Clouds
1:53 PM 91.0 °F 100.4 °F 73.9 °F 57% 29.96 in 10.0 mi East 15.0 mph - N/A   Partly Cloudy
2:53 PM 90.0 °F 99.0 °F 73.9 °F 59% 29.93 in 10.0 mi East 11.5 mph 21.9 mph N/A   Partly Cloudy
4:14 PM 87.1 °F 96.3 °F 75.0 °F 67% 29.90 in 10.0 mi ENE 11.5 mph - 0.00 in   Mostly Cloudy
4:23 PM 87.1 °F 96.3 °F 75.0 °F 67% 29.90 in 10.0 mi East 11.5 mph - 0.00 in   Mostly Cloudy
4:53 PM 87.1 °F 94.5 °F 73.0 °F 63% 29.90 in 10.0 mi East 13.8 mph - 0.00 in   Scattered Clouds
5:53 PM 88.0 °F 95.6 °F 73.0 °F 61% 29.89 in 10.0 mi ENE 15.0 mph - N/A   Clear
6:53 PM 86.0 °F 93.8 °F 73.9 °F 67% 29.90 in 10.0 mi ENE 9.2 mph - N/A   Partly Cloudy
7:53 PM 84.9 °F 92.1 °F 73.9 °F 69% 29.92 in 10.0 mi ENE 11.5 mph - N/A   Clear
8:53 PM 84.9 °F 92.1 °F 73.9 °F 69% 29.94 in 10.0 mi ENE 8.1 mph - N/A   Clear
9:53 PM 82.9 °F 90.2 °F 75.0 °F 77% 29.95 in 10.0 mi NE 6.9 mph - N/A   Clear
10:53 PM 81.0 °F 85.8 °F 73.0 °F 77% 29.96 in 10.0 mi NE 13.8 mph 21.9 mph 0.00 in Rain Light Rain
11:53 PM 79.0 °F - 75.0 °F 88% 29.95 in 10.0 mi NNE 5.8 mph - 0.00 in   Partly Cloudy